User: anonymous   Login
Location: Hepcat Sky Observatory
(29.9800°N, 95.6500°W)
Time: 15:39:12
(UTC-05:00)
Language:

Cosmos 1602 Rocket - Orbit

View from above orbital plane
View from above orbital plane
View from above satellite
View from above satellite

Ground track
Ground track

The orbit data is extracted from the following two-line orbital elements,

1 15332U 84105B   16126.77082131 +.00000151 +00000-0 +15593-4 0  9991
2 15332 082.5368 208.8694 0019642 273.9417 205.8937 14.83233412685105
Epoch (UTC): 05 May 2016 18:29:58
Eccentricity: 0.0019642
inclination: 82.5368°
perigee height: 605 km
apogee height: 633 km
right ascension of ascending node: 208.8694°
argument of perigee: 273.9417°
revolutions per day: 14.83233412
mean anomaly at epoch: 205.8937°
orbit number at epoch: 68510

The dashed part of the orbit path shows where the satellite is in the earth's shadow,  

DLR